Flag for United Kingdom Weather past 2 weeks in Manchester, England, United Kingdom

Now
68 °F

Clear.


Feels Like: 68 °F
Forecast: 55 / 66 °F
Wind: 15 mph from Southeast

Location: Manchester Airport

Current Time: Aug 3, 2015 at 1:54:38 AM

Latest Report: Aug 3, 2015 at 12:50 AM


Visibility: 10 mi

Pressure: 29.77 "Hg

Humidity: 46%

Dew point: 46 °F

Location of ManchesterLocation

Historic Weather in Manchester — Graph

°F

Manchester temperature yesterday

Maximum temperature yesterday: 72 °F (at 4:50 PM)
Minimum temperature yesterday: 52 °F (at 12:20 AM)
Average temperature yesterday: 62 °F

Past Weeks' High & Low Weather Summary

 TemperatureHumidityPressure
High72 °F (Aug 2, 4:50 PM)100% (Jul 19, 4:50 AM)30.15 "Hg (Jul 19, 4:50 AM)
Low43 °F (Jul 31, 1:20 AM)44% (Aug 2, 5:20 PM)29.33 "Hg (Jul 26, 10:50 PM)
Average57 °F79%29.84 "Hg
* Reported Jul 19 12:20 AM — Aug 3 12:20 AM, Manchester, Weather by CustomWeather, © 2015

Note: Actual official high and low records may vary slightly from our data, if they occured in-between our weather recording intervals... More about our weather records

Advertising

Manchester weather history for previous 24 hours

 ConditionsComfort  
Time TempWeatherWind HumidityBarometerVisibility
12:20 AM
Mon, Aug 3
68 °FClear.9 mph46%29.80 "Hg10 mi
11:50 PM
Sun, Aug 2
68 °FClear.10 mph49%29.80 "Hg10 mi
11:20 PM66 °FMild.8 mph52%29.83 "HgN/A
10:20 PM68 °FPassing clouds.14 mph53%29.77 "HgN/A
9:50 PM68 °FSunny.12 mph53%29.80 "Hg10 mi
9:20 PM66 °FSunny.9 mph56%29.86 "Hg10 mi
8:50 PM68 °FSunny.3 mph56%29.86 "Hg10 mi
8:20 PM68 °FSunny.6 mph56%29.86 "Hg10 mi
7:50 PM70 °FPassing clouds.9 mph53%29.86 "HgN/A
7:20 PM70 °FSunny.10 mph53%29.86 "Hg10 mi
6:50 PM70 °FPassing clouds.10 mph50%29.86 "HgN/A
6:20 PM72 °FPassing clouds.12 mph47%29.89 "HgN/A
5:50 PM72 °FSunny.15 mph47%29.89 "Hg10 mi
5:20 PM72 °FSunny.16 mph44%29.89 "Hg10 mi
4:50 PM72 °FPassing clouds.14 mph47%29.89 "HgN/A
4:20 PM70 °FSunny.13 mph50%29.92 "Hg10 mi
3:50 PM70 °FSunny.15 mph50%29.92 "Hg10 mi
3:20 PM68 °FSunny.14 mph53%29.95 "Hg10 mi
2:50 PM70 °FPassing clouds.15 mph50%29.95 "HgN/A
2:20 PM70 °FPassing clouds.13 mph53%29.98 "HgN/A
1:50 PM68 °FScattered clouds.12 mph56%29.98 "HgN/A
1:20 PM66 °FPartly sunny.12 mph60%30.01 "HgN/A
12:50 PM64 °FBroken clouds.7 mph73%30.01 "HgN/A
12:20 PM64 °FScattered clouds.8 mph73%30.01 "HgN/A
11:50 AM63 °FScattered clouds.8 mph77%30.01 "HgN/A
11:20 AM63 °FScattered clouds.9 mph77%30.01 "HgN/A
10:50 AM63 °FScattered clouds.9 mph77%30.04 "HgN/A
10:20 AM61 °FPassing clouds.7 mph83%30.04 "HgN/A
9:50 AM59 °FPassing clouds.9 mph88%30.04 "HgN/A
9:20 AM57 °FScattered showers. Passing clouds.6 mph88%30.04 "HgN/A
8:50 AM55 °FLight rain. Partly sunny.6 mph94%30.04 "HgN/A
8:20 AM55 °FLight rain. Partly sunny.7 mph94%30.04 "HgN/A
7:50 AM55 °FLight rain. Partly sunny.6 mph88%30.04 "HgN/A
7:20 AM55 °FLight rain. Passing clouds.5 mph88%30.01 "HgN/A
6:50 AM54 °FLight rain. Partly sunny.7 mph88%30.01 "HgN/A
6:20 AM54 °FPassing clouds.5 mph88%30.01 "HgN/A
5:50 AM54 °FClear.5 mph82%30.01 "Hg10 mi
5:20 AM52 °FClear.5 mph88%30.01 "Hg10 mi
4:50 AM52 °FClear.5 mph88%30.01 "Hg10 mi
4:20 AM54 °FClear.5 mph82%30.01 "Hg10 mi
3:50 AM54 °FClear.6 mph82%30.01 "Hg10 mi
3:20 AM54 °FClear.7 mph82%30.01 "Hg10 mi
2:50 AM54 °FClear.7 mph82%30.01 "Hg10 mi
2:20 AM52 °FClear.7 mph88%30.01 "Hg10 mi
1:50 AM52 °FClear.6 mph88%30.04 "Hg10 mi
1:20 AM52 °FClear.6 mph88%30.04 "Hg10 mi
Weather by CustomWeather, © 2015

See weather overviewHow to use our weather pages